Showing default

BLACKCAT, 67369

Orbit data source: Space-Track

BLACKCAT, 67369 is a payload satellite owned by PSU (US) in SSO that was launched on Sun, 11 Jan 2026 UTC via an FALCON 9 launch vehicle from the Air Force Western Test Range (AFWTR). Payload-class satellites include a variety of spacecraft equipped with specific instruments for various scientific and technological missions. These include communications satellites like Starlink; space stations such as the ISS; scientific satellites like the Hubble; Earth observation satellites from companies like Planet Labs, Umbra, and HawkEye 360; GPS; miniature CubeSats for education and research; and military/defense satellites.

Loading next visibility...
Identifier
67369, 2026-004G
Orbit
SSO
Country
Flag of USUS
Related business
Manufacturer
NanoAvionics US
Mission
Operational Amateur Astronomy
Bus & Motor
CUBESAT 6U, Unknown motor
Mass
11.4 kg wet, 11.4 kg dry
Launch date (UTC)
2026-01-11 (4 months ago)
Launch vehicle
FALCON 9
Launch site
Air Force Western Test Range (AFWTR)
Object type
Payload
Rocket body
Debris
Shape & HBR
Box + 2 Pan, 0.7 m
Radar Cross Section
0.078 m²

Expand to show TLE details & history
Last TLE update: 8 hours ago

TLE from 8 hours ago
0 BLACKCAT
1 67369U 26004G   26146.56283614  .00001450  00000-0  16552-3 0  9999
2 67369  97.7982 145.3725 0006310 203.7534 156.3392 14.87583714 20072
Epoch: 2026-05-26T13:30Z
TLE epoch observation values (Epoch: 2026-05-26T13:30:29.042Z)
Latitude
-0.00002°
Longitude
58.61701°
Altitude
612.56 km
Speed
7.551 km/s
True Right ascension
09h 41m 29s
True Declination
0° 00' 00"
Sunlit
Object was in daylight at epoch
Visualization orbit readout
Latitude
Unknown
Longitude
Unknown
Altitude
Unknown
Speed
Unknown
Apparent Right ascension
Unknown
Apparent Declination
Unknown
Sunlit
N/A
Visualization observer readout
Local Sidereal Time
06:41:41
Azimuth
Unknown
Elevation
Unknown
Doppler factor
Unknown
Orbital elements
Apogee altitude
606.919 km
Perigee altitude
598.109 km
Semi-major axis
6,980.651 km
Eccentricity
0.00063
Inclination
97.7982°
RAAN
145.3725°
Arg. of periapsis
203.7534°
True anomaly
156.3682°
Mean anomaly
156.3392°
Eccentric anomaly
156.3537°
Mean motion
3.72134 °/min
Orbital period
96.74 mins
BSTAR
0.00016552
Loading maneuver chart data...
Computing Atmospheric mass density...
Loading historical data...
Loading historical data...
Loading historical data...
Loading historical data...
Loading historical data...
Loading historical data...
Loading historical data...

Documentation

Showing up to 5 results
|